This is the latest recevied weather packets stored in our database for station/object K7TUS-6. If no packets are shown the sender has not sent any weather packets the latest 10 day(s).
| Time | Temp. | Humidity | Pressure | Rain* | Wind** | Luminosity | Snow |
|---|---|---|---|---|---|---|---|
| 1777688705 | 10° C | 4% | 982.4 hPa | - | - | - | - |
| 1777688409 | 10° C | 4% | 982.4 hPa | - | - | - | - |
| 1777688108 | 10.56° C | 4% | 981.8 hPa | - | - | - | - |
| 1777687808 | 10.56° C | 3% | 982.3 hPa | - | - | - | - |
| 1777687507 | 10.56° C | 4% | 981.9 hPa | - | - | - | - |
| 1777687206 | 10.56° C | 4% | 982.5 hPa | - | - | - | - |
| 1777686905 | 11.11° C | 3% | 981.8 hPa | - | - | - | - |
| 1777686605 | 11.67° C | 3% | 981.7 hPa | - | - | - | - |
| 1777686304 | 11.67° C | 3% | 982 hPa | - | - | - | - |
| 1777686004 | 11.67° C | 5% | 981.8 hPa | - | - | - | - |
| 1777685703 | 12.22° C | 1% | 981.8 hPa | - | - | - | - |
| 1777685409 | 12.22° C | 1% | 981.6 hPa | - | - | - | - |
| 1777685108 | 12.78° C | 1% | 982.4 hPa | - | - | - | - |
| 1777684807 | 12.22° C | 3% | 982.1 hPa | - | - | - | - |
| 1777684507 | 13.33° C | 1% | 981.3 hPa | - | - | - | - |
| 1777684206 | 14.44° C | 1% | 982.1 hPa | - | - | - | - |
| 1777683906 | 13.89° C | 1% | 981.6 hPa | - | - | - | - |
| 1777683605 | 14.44° C | 1% | 981.7 hPa | - | - | - | - |
| 1777683304 | 15° C | 100% | 981.9 hPa | - | - | - | - |
| 1777683004 | 15.56° C | 1% | 981.9 hPa | - | - | - | - |
| 1777682709 | 14.44° C | 1% | 981.6 hPa | - | - | - | - |
| 1777682409 | 15° C | 1% | 982 hPa | - | - | - | - |
| 1777682108 | 15° C | 1% | 981.5 hPa | - | - | - | - |
| 1777681808 | 14.44° C | 100% | 982 hPa | - | - | - | - |
| 1777681507 | 15° C | 100% | 981.7 hPa | - | - | - | - |
* Rain since midnight (hover to see other rain measurements)
** Current wind speed in m/s (hover to see current wind gust speed)